Theta_e
319 319 320 319 319 321 321 320 321 320 320 320 318 317 317 315 315 317 316 315 313 311 311 313 313 315 315 315 314 311 310 312 313 311 308 307 309 312 314 314 313 312
318 319 320 320 320 321 321 321 321 320 320 321 319 318 318 316 316 317 315 312 310 309 309 309 310 313 314 315 313 310 311 313 315 315 312 309 309 310 313 314 313 312
319 319 321 320 320 320 321 321 320 320 320 321 320 319 319 317 315 317 316 314 311 309 308 308 309 313 314 314 313 312 313 315 316 315 313 311 310 308 310 313 313 313
319 319 320 321 320 319 320 321 320 320 320 321 321 320 320 318 316 316 317 315 313 312 310 308 308 312 314 313 314 314 314 314 314 312 312 312 311 307 307 310 312 312
321 320 320 320 321 320 318 321 321 319 320 320 321 320 320 319 318 317 318 317 315 314 313 311 309 312 315 313 314 315 314 314 312 311 312 311 310 307 306 309 310 311
321 321 320 318 320 321 319 320 321 320 319 319 321 321 320 320 319 318 318 317 317 316 316 314 312 313 315 313 313 314 314 314 312 313 314 311 310 310 309 310 311 311
323 323 323 321 320 322 319 319 320 321 320 319 320 321 320 321 321 320 319 318 317 317 317 317 315 314 315 313 313 314 314 314 312 313 315 312 311 312 311 310 311 311
325 324 325 324 323 323 321 320 320 320 320 320 320 321 321 321 321 321 320 319 318 317 318 318 317 316 316 314 313 314 314 314 313 313 314 313 312 312 310 309 310 310
324 323 323 323 323 323 323 323 322 321 321 321 321 321 321 321 321 321 321 320 319 319 319 318 319 318 316 315 314 314 314 314 313 313 312 313 313 311 310 310 309 308
323 322 322 323 322 323 323 323 323 322 323 322 321 321 320 321 322 322 322 321 320 320 320 319 319 319 318 317 316 314 314 315 315 314 312 312 313 312 311 311 310 308
322 322 321 321 321 322 322 322 322 322 323 323 322 322 320 320 321 322 322 322 321 321 320 320 319 319 318 318 317 316 315 315 315 315 313 311 312 312 310 310 311 310
321 321 320 320 321 322 321 321 320 320 321 320 320 320 319 319 320 320 320 320 321 320 321 320 319 319 319 318 317 317 316 315 315 315 314 312 312 312 311 310 310 310
322 322 321 321 322 322 322 321 320 320 320 319 319 320 319 318 317 318 317 318 318 319 320 320 320 319 319 318 318 317 316 316 316 315 315 313 312 312 312 311 310 309
322 322 323 323 324 324 323 322 321 321 321 320 321 321 319 318 317 317 317 316 317 318 319 320 320 320 319 319 318 317 317 316 316 316 315 314 313 312 312 311 310 309
321 321 321 322 322 322 322 323 322 322 322 322 322 322 321 321 319 319 318 318 318 319 319 319 319 319 319 319 318 318 318 317 316 315 315 314 312 312 311 310 309 309
314 314 315 315 315 316 317 318 318 318 318 319 319 320 320 321 320 319 319 319 320 320 320 320 320 319 319 319 318 318 318 318 317 316 315 313 312 312 311 310 309 308
310 310 311 311 312 313 313 314 314 315 316 316 316 317 318 319 320 320 320 320 320 320 320 320 320 320 320 319 318 318 318 318 317 316 314 313 312 311 311 309 308 307
307 308 309 309 310 311 312 312 313 314 315 317 318 319 319 320 320 321 321 321 321 321 321 321 320 320 320 320 319 319 318 318 318 316 314 313 312 311 311 310 308 307
307 307 307 307 308 308 309 309 310 310 310 312 314 316 318 320 320 321 321 321 321 321 321 321 321 321 321 320 319 319 318 319 318 316 314 313 312 312 311 309 308 307
307 307 307 308 308 308 308 308 308 308 308 308 309 310 313 316 317 318 320 321 321 321 321 321 321 320 320 320 319 319 318 318 317 315 314 313 312 311 309 308 307 306
307 307 308 308 308 308 307 307 307 307 308 308 308 309 310 312 314 316 317 318 318 319 320 320 320 320 320 319 319 318 317 316 315 313 312 310 309 308 307 306 305 305
307 307 308 308 308 308 308 307 307 307 307 307 308 308 308 310 312 314 315 316 317 318 319 320 320 319 319 318 316 315 314 314 312 310 309 308 307 306 306 305 304 303
307 307 308 308 308 308 308 307 307 307 307 307 307 307 308 308 310 312 313 314 316 318 319 319 319 319 318 315 313 312 312 311 309 308 307 306 305 304 304 304 303 303
306 307 308 308 308 308 308 307 307 307 306 306 306 307 307 307 308 311 313 313 314 315 316 317 318 318 316 313 310 310 310 308 306 306 305 304 303 303 302 302 302 302
306 306 307 307 308 308 308 307 307 307 307 307 307 307 308 307 308 310 313 313 313 314 314 315 316 315 313 310 308 308 308 306 305 304 303 302 302 302 302 301 301 301
306 306 306 306 306 307 307 307 308 308 308 308 308 308 308 309 309 311 312 312 313 314 314 314 314 313 309 307 307 306 306 305 304 303 302 301 300 300 300 299 299 298
Wind_Speed
26 25 24 22 20 21 19 18 18 16 15 13 12 11 10 10 11 11 9 8 7 8 9 10 10 10 10 8 6 7 9 10 10 10 10 10 10 10 12 12 10 9
26 23 22 21 19 19 18 17 17 15 15 13 11 11 9 9 10 9 7 7 7 7 7 8 10 10 9 7 5 6 9 10 10 8 8 9 10 10 11 12 10 8
23 22 21 20 20 18 16 16 16 14 14 14 12 11 10 9 10 9 7 6 6 6 7 7 9 9 7 6 5 6 8 8 7 6 6 7 7 8 10 10 10 8
19 20 19 18 19 18 16 15 16 14 13 14 13 12 11 10 10 9 8 6 5 6 6 6 8 8 6 7 6 5 7 6 6 7 6 5 5 5 8 9 9 7
16 17 17 16 16 17 17 16 16 15 13 12 13 12 11 10 9 9 8 7 6 6 5 5 7 8 7 7 8 6 7 7 5 6 5 5 4 3 6 8 8 6
16 15 16 16 14 16 19 17 15 15 14 12 11 11 11 9 8 8 8 7 7 7 7 6 6 8 7 7 8 7 7 7 6 7 6 4 4 3 4 5 4 3
16 15 14 14 13 14 19 18 14 14 13 11 11 11 10 10 8 7 8 8 8 8 8 8 7 8 9 8 8 8 7 7 6 8 8 6 5 6 5 3 3 1
15 13 11 11 11 12 16 17 14 13 10 9 11 10 9 9 9 9 9 9 9 10 10 10 9 9 10 10 9 9 9 9 8 9 9 8 8 8 7 6 5 4
13 12 10 9 9 10 12 13 13 12 11 9 10 9 7 6 8 9 10 10 11 12 12 13 13 12 12 12 11 11 11 11 11 11 10 10 11 9 8 8 7 6
12 12 12 10 8 7 8 10 11 11 12 12 10 9 7 5 6 10 11 12 13 15 15 15 16 15 15 14 13 13 14 13 14 13 12 11 12 11 9 9 9 7
13 14 15 14 13 13 13 13 12 11 12 12 11 12 11 8 7 9 11 13 15 16 16 17 18 18 18 18 17 16 16 16 16 16 14 13 13 12 10 10 9 7
11 12 13 15 14 14 14 15 14 13 13 12 12 14 16 15 14 13 13 15 16 14 13 15 18 19 20 20 20 19 18 18 19 19 16 14 15 13 11 10 10 7
9 9 10 12 12 10 12 14 14 14 14 13 15 18 20 21 20 19 19 19 19 17 15 13 15 19 21 21 20 20 20 20 21 21 19 17 17 15 13 13 11 9
8 8 9 9 7 6 7 9 11 12 11 12 15 19 21 21 21 21 21 22 23 23 20 18 16 17 20 21 19 18 19 22 24 23 21 20 19 18 17 16 14 12
9 9 9 8 7 6 6 6 7 8 10 12 15 17 19 20 20 20 21 23 25 24 22 21 21 20 20 21 21 19 19 22 25 26 24 22 22 20 18 17 14 13
9 8 8 7 7 7 7 8 8 9 10 12 13 14 14 16 18 19 19 21 24 25 23 22 22 23 23 23 23 23 23 22 23 27 27 24 23 21 19 17 16 15
5 5 6 5 3 4 5 7 9 10 11 11 12 12 13 14 17 18 19 19 21 23 22 21 21 22 23 24 24 25 26 24 22 26 27 25 24 24 21 19 18 16
3 4 4 3 2 3 3 4 5 6 8 9 11 12 13 14 16 17 17 17 17 18 18 18 19 19 20 23 23 24 25 24 22 25 27 26 26 25 23 21 18 17
2 3 2 1 1 2 2 1 0 1 3 4 6 7 9 10 11 13 14 14 13 13 13 14 15 16 17 19 20 21 22 22 23 26 29 28 25 24 21 19 17 16
3 2 2 2 3 3 2 1 2 3 5 6 6 6 6 6 7 9 11 12 11 10 10 11 12 14 14 14 15 17 19 22 24 26 27 24 22 20 18 16 15 15
3 3 2 2 1 1 1 1 2 3 5 6 7 7 7 7 8 9 9 11 13 12 10 9 11 13 13 13 14 14 16 20 23 23 22 20 17 16 15 14 13 14
5 4 4 3 2 2 2 2 3 4 4 6 7 8 8 9 10 10 10 9 11 12 11 10 11 13 13 12 12 11 15 21 22 21 19 17 14 13 14 14 13 12
6 5 4 4 4 4 4 3 4 4 5 7 8 9 10 11 11 11 12 10 9 11 11 10 11 13 12 10 10 13 18 20 20 18 16 15 14 13 12 11 10 9
5 4 5 6 6 5 5 5 6 6 7 8 9 11 12 13 13 12 12 12 11 11 10 9 10 12 12 12 13 16 17 16 16 16 15 14 12 9 6 6 7 8
4 4 5 5 6 7 8 9 9 9 8 8 9 11 13 14 15 14 12 12 12 13 11 9 10 12 14 15 16 16 15 14 14 13 12 9 7 6 6 6 6 6
8 8 8 9 11 13 13 13 12 10 9 9 10 11 13 15 15 13 11 11 11 12 11 10 11 14 16 17 17 16 15 15 13 12 11 9 9 8 7 4 2 2
Wind_Direction
169 168 168 163 159 160 158 155 155 156 157 154 145 145 147 138 132 132 133 132 127 123 124 129 124 112 108 108 100 96 97 92 87 82 85 95 102 112 111 100 98 98
171 168 167 164 161 165 165 160 158 159 165 164 154 152 153 146 143 146 147 140 137 133 128 131 130 124 119 114 106 106 103 94 90 84 79 84 90 105 111 100 95 90
172 168 166 165 165 168 170 167 162 161 167 168 164 165 162 155 155 159 161 152 146 147 143 137 135 136 141 136 123 116 116 112 113 115 102 90 90 102 114 111 100 87
179 171 167 166 169 171 171 171 168 162 164 170 172 175 172 164 163 169 174 172 165 162 161 158 152 154 162 157 151 145 142 148 152 146 134 125 115 101 114 124 119 105
193 180 176 173 173 176 174 174 174 169 167 171 175 179 179 174 172 178 183 183 185 187 186 185 171 169 178 173 170 173 170 173 169 153 153 154 148 115 111 121 127 121
196 186 183 182 183 184 181 177 173 172 172 174 176 181 183 185 188 191 197 196 197 204 206 207 193 184 194 192 184 190 193 194 183 168 178 183 166 156 122 112 123 120
188 185 182 180 178 181 184 181 172 169 174 181 186 188 187 191 198 206 216 216 211 217 220 220 215 202 205 209 203 208 213 215 206 189 195 203 183 176 175 163 165 183
174 174 167 162 154 155 171 176 172 166 166 173 180 181 185 196 205 211 220 226 225 227 227 228 229 217 215 217 214 216 221 225 224 209 206 212 203 195 201 204 195 182
157 156 151 148 141 141 151 161 169 172 171 172 170 164 165 187 208 215 218 224 229 232 231 231 233 227 222 223 221 222 224 227 228 222 217 218 218 214 215 218 214 199
145 152 155 155 157 164 165 166 173 183 191 196 197 196 193 189 196 201 205 213 227 234 231 228 230 229 226 225 226 227 227 228 228 225 223 225 226 224 223 228 229 218
166 173 175 182 193 201 204 199 193 197 204 207 214 224 232 241 225 203 201 209 221 231 233 231 230 227 225 225 226 226 225 226 227 227 226 228 229 228 230 232 228 221
196 200 196 201 206 201 201 206 206 207 210 216 230 234 232 237 238 229 224 223 225 229 233 232 226 221 220 220 222 223 223 222 224 226 226 227 230 231 230 225 216 215
201 202 195 200 206 204 211 223 224 217 217 227 237 236 232 235 239 239 237 239 240 240 241 235 224 223 225 223 220 220 222 222 221 221 222 222 224 225 221 216 215 220
166 165 168 178 186 196 217 230 229 225 228 233 232 233 238 244 248 249 249 252 252 250 246 238 232 234 236 234 228 222 223 226 223 218 217 215 214 216 215 215 222 227
161 160 167 174 178 184 194 207 214 218 224 229 232 238 245 250 253 255 257 258 256 253 249 243 242 246 248 246 242 233 228 230 227 220 214 209 206 207 210 213 218 222
160 164 170 174 181 188 192 199 207 216 221 225 231 237 244 250 254 256 257 256 254 252 250 245 244 247 252 255 254 247 239 237 234 223 214 206 202 201 203 208 213 218
160 165 168 169 178 189 195 207 218 228 236 238 239 239 243 250 254 254 254 254 255 254 251 248 248 252 257 260 261 254 245 241 237 223 211 205 202 200 200 204 210 217
157 155 167 185 208 200 200 216 228 239 248 252 250 247 248 251 254 253 251 250 253 255 256 258 261 264 265 264 263 257 244 239 235 222 211 206 204 203 203 205 211 216
158 151 166 173 128 121 113 116 261 307 311 300 284 270 259 253 254 256 251 248 252 259 266 274 273 270 270 267 263 254 244 241 234 220 210 206 203 201 203 206 211 216
168 167 158 129 119 106 77 19 318 320 322 320 319 314 300 280 272 269 258 250 256 268 275 279 276 272 272 270 264 258 248 239 226 212 205 202 198 195 198 202 210 215
208 209 209 189 142 116 36 3 321 309 307 306 307 309 309 302 289 281 272 263 264 268 271 270 269 269 268 268 270 264 239 219 207 197 189 183 181 186 193 196 199 200
235 228 222 217 210 225 238 258 285 295 300 301 298 293 295 298 289 278 278 277 265 257 255 256 263 267 266 264 260 241 211 197 189 184 178 172 175 189 196 196 197 199
239 230 220 219 228 238 239 246 264 280 288 291 293 291 288 291 291 279 271 270 260 249 244 243 249 254 252 241 221 204 194 186 181 179 178 176 179 185 191 200 213 229
230 233 234 232 234 234 237 248 262 272 280 283 288 292 289 289 293 283 263 254 253 248 241 238 238 234 225 212 200 194 189 180 176 176 173 172 177 182 198 222 236 250
247 257 256 243 236 241 250 260 265 267 268 272 282 290 291 292 294 284 258 241 242 241 232 226 221 211 204 200 196 195 191 182 176 175 170 169 177 185 194 212 225 236
263 264 264 258 256 258 260 258 257 256 258 265 275 283 290 295 294 277 247 225 223 224 215 206 203 195 190 193 194 193 192 187 178 172 168 162 160 160 158 159 194 251